Tracking 35237 objects as of 5-Sep-2026
HD Live streaming from Space Station
objects crossing your sky now

ATLAS 2 CENTAUR R/B(2)

Track ATLAS 2 CENTAUR R/B(2) now!


NORAD ID: 23648
Int'l Code: 1995-038C
Launch date: July 31, 1995
Source: United States (US)
Launch site: AIR FORCE EASTERN TEST RANGE (AFETR)

Note: This is a ROCKET BODY
Your satellite tracking list
Your tracking list is empty




NASA's NSSDC Master Catalog

Two Line Element Set (TLE):
1 23648U 95038C   26247.16845178 -.00000245  00000-0  00000+0 0  9990
2 23648  13.6780 344.6698 0020904 291.4753  68.3472  1.01266334 26886
Source of the keplerian elements: AFSPC